RH
22 24 26 27 34 36 38 38 37 36 37 38 34 30 28 26 29 30 32 29 28 27 25 24 24 25 25 26 26 27 27 28 30 32 36 37 30 29 32 33 36 38 41 43
23 23 18 27 30 35 37 37 36 32 32 37 35 31 30 29 29 30 29 28 27 26 26 25 27 25 25 25 25 25 27 30 33 36 38 40 40 36 33 33 38 41 45 49
22 18 19 25 29 32 34 34 31 33 33 32 34 29 30 30 30 31 32 30 28 29 27 26 28 27 28 28 27 27 30 33 36 39 42 42 44 42 40 38 40 43 46 49
22 19 18 20 27 30 32 30 32 33 33 35 32 37 28 27 26 28 29 28 28 28 26 26 27 28 29 29 28 28 32 35 38 41 42 42 42 43 42 44 44 45 48 50
19 18 23 24 24 31 30 29 30 31 34 32 31 40 25 32 29 25 27 29 27 27 26 27 29 30 30 30 31 33 36 39 40 42 44 48 47 45 45 48 50 50 51 54
19 17 20 22 26 30 29 28 28 33 35 38 33 41 33 36 34 32 31 30 29 29 31 33 33 34 35 37 39 40 42 43 44 45 46 45 46 48 50 51 52 54 55 56
19 19 17 20 26 27 30 32 38 41 44 42 33 38 35 43 42 39 36 36 36 34 36 38 39 39 38 39 40 41 40 39 39 41 42 42 43 46 48 49 50 54 55 57
25 26 18 16 21 26 31 33 42 45 48 43 34 36 27 28 38 38 40 42 42 41 42 42 43 43 44 44 42 40 38 37 36 37 37 38 39 41 44 47 51 53 55 56
28 26 18 19 17 29 37 38 32 41 40 47 41 31 27 25 34 37 39 40 39 43 44 45 45 44 45 45 46 41 37 37 37 36 37 39 42 44 47 50 52 55 56 60
24 29 22 21 27 33 37 34 41 44 50 50 43 39 32 26 29 26 31 37 43 45 47 45 45 45 44 42 42 38 38 38 37 37 39 40 40 42 48 52 58 57 62 74
26 28 26 26 30 30 35 36 35 36 44 49 49 42 30 26 28 32 32 33 39 43 49 50 45 44 45 43 41 43 42 41 39 38 41 43 46 48 49 51 52 58 66 70
26 32 33 32 32 35 38 38 37 41 35 42 46 45 30 26 30 32 33 31 31 35 40 41 45 48 46 44 45 46 46 45 45 44 45 49 52 55 53 52 55 62 73 79
30 35 42 35 34 36 35 31 34 36 41 43 48 41 33 34 33 32 31 32 32 33 34 40 41 45 48 47 48 49 48 47 47 49 50 51 53 54 55 52 49 53 60 68
33 33 36 36 29 25 27 28 28 31 43 43 43 36 32 31 32 32 30 29 33 35 43 42 47 47 49 52 51 51 50 50 48 47 47 48 50 50 52 53 52 50 53 63
38 37 37 34 32 31 29 27 27 29 33 37 29 30 27 24 25 27 30 29 33 39 39 42 49 51 53 54 54 52 51 52 53 50 48 49 51 52 55 56 53 53 58 61
40 40 40 40 38 36 36 32 30 28 27 31 28 26 23 25 28 31 37 46 45 45 43 45 44 44 45 47 48 48 47 49 53 52 51 55 58 60 59 58 56 57 60 65
48 49 50 48 46 47 44 38 35 33 33 30 31 26 28 29 34 44 51 50 53 52 49 48 47 46 48 48 48 48 51 52 54 55 58 61 63 62 63 61 60 63 67 71
54 55 60 66 57 61 34 30 31 36 35 34 34 33 35 40 44 47 56 58 58 56 54 54 53 52 51 51 52 53 55 56 58 60 62 62 63 59 61 63 66 68 72 74
55 63 71 72 70 46 38 38 37 40 38 37 41 41 46 50 55 61 62 62 64 61 59 57 57 56 56 56 57 58 57 56 56 56 56 58 57 56 58 62 65 69 74 79
57 59 67 77 80 63 39 38 40 47 49 50 55 59 58 64 71 75 66 64 67 67 65 61 58 61 65 66 60 58 64 71 71 72 66 64 60 65 67 67 72 76 79 84
65 73 69 70 75 55 45 49 54 63 51 64 69 70 71 75 76 79 75 73 66 66 63 62 63 67 67 65 62 61 60 73 71 66 62 68 68 70 73 76 81 85 88 92
64 67 68 75 84 68 52 55 61 61 70 76 77 74 75 78 78 78 82 80 73 71 67 68 62 58 61 66 66 66 69 71 73 71 71 74 78 83 84 89 92 93 94 91
70 67 68 71 68 58 62 67 74 79 83 84 84 84 83 85 79 77 75 74 75 74 71 72 71 67 66 67 73 68 74 83 84 91 91 92 91 91 88 92 95 95 94 95
79 77 77 77 65 69 72 78 82 85 87 88 88 88 90 87 81 81 75 68 69 68 65 66 69 71 72 71 71 77 81 83 83 80 84 87 89 89 85 88 93 94 96 97
89 87 83 78 83 88 93 94 90 93 87 92 90 90 87 81 76 74 72 67 67 63 60 60 59 58 60 66 72 74 79 77 80 84 86 91 91 94 94 96 99 99 98 97
91 89 93 92 93 92 93 95 89 91 92 93 88 83 76 74 71 70 68 66 62 59 59 58 57 56 61 64 65 72 77 83 87 89 91 94 97 98 98 98 98 97 98 98